RYR526 EDDF-LIMC

Flight info

Callsign RYR526
Flight time 1h 4m
Altitude 31000
Route ANEKI2L ANEKI Y163 PABLA/N0443F330 Y163 NATOR DCT TRA DCT RIPUS DCT GERSA DCT SOSON DCT DEGAD Z424 RIXUV
Aircraft B738/M-SDE2E3FGHIRWXY/LB1

Departure

Time 2026-04-15 13:34
Airport Frankfurt Main Airport (EDDF)

Arrival

Time 2026-04-15 14:39
Airport Milan Malpensa International Airport (LIMC)
Time Latitude Longitude Altitude Speed Heading
2026-04-15 12:52 50.03816 8.54586 356 ft 0 kts 160°
2026-04-15 13:27 50.03799 8.54597 354 ft 5 kts 160°
2026-04-15 13:27 50.03758 8.54617 353 ft 7 kts 171°
2026-04-15 13:27 50.03721 8.54569 350 ft 8 kts 244°
2026-04-15 13:28 50.03699 8.54485 352 ft 9 kts 249°
2026-04-15 13:28 50.03669 8.54363 353 ft 16 kts 249°
2026-04-15 13:28 50.03620 8.54156 351 ft 23 kts 250°
2026-04-15 13:28 50.03556 8.53884 339 ft 28 kts 250°
2026-04-15 13:29 50.03483 8.53578 333 ft 30 kts 249°
2026-04-15 13:29 50.03407 8.53263 334 ft 29 kts 249°
2026-04-15 13:29 50.03341 8.52985 349 ft 24 kts 250°
2026-04-15 13:29 50.03291 8.52777 350 ft 15 kts 249°
2026-04-15 13:30 50.03288 8.52767 351 ft 0 kts 249°
2026-04-15 13:31 50.03265 8.52693 347 ft 14 kts 237°
2026-04-15 13:32 50.03177 8.52603 344 ft 14 kts 190°
2026-04-15 13:32 50.03114 8.52597 343 ft 0 kts 182°
2026-04-15 13:33 50.03112 8.52597 342 ft 0 kts 181°
2026-04-15 13:33 50.03058 8.52596 341 ft 39 kts 180°
2026-04-15 13:33 50.02430 8.52606 357 ft 137 kts 179°
2026-04-15 13:34 50.01265 8.52635 752 ft 183 kts 179°
2026-04-15 13:34 49.99965 8.52640 2105 ft 188 kts 178°
2026-04-15 13:34 49.98687 8.52672 3658 ft 182 kts 178°
2026-04-15 13:34 49.97380 8.52700 4608 ft 196 kts 177°
2026-04-15 13:35 49.95935 8.52767 5022 ft 220 kts 177°
2026-04-15 13:35 49.94347 8.52861 5603 ft 235 kts 177°
2026-04-15 13:35 49.92676 8.52992 6431 ft 242 kts 177°
2026-04-15 13:35 49.91033 8.53144 7586 ft 236 kts 177°
2026-04-15 13:36 49.89376 8.53293 8484 ft 241 kts 178°
2026-04-15 13:36 49.87678 8.53436 9382 ft 246 kts 178°
2026-04-15 13:36 49.85957 8.53576 10270 ft 251 kts 178°
2026-04-15 13:36 49.84199 8.53710 11098 ft 253 kts 179°
2026-04-15 13:37 49.82423 8.53841 11920 ft 257 kts 179°
2026-04-15 13:37 49.80619 8.53971 12753 ft 261 kts 179°
2026-04-15 13:37 49.78818 8.54100 13586 ft 265 kts 179°
2026-04-15 13:37 49.76926 8.54117 14233 ft 276 kts 184°
2026-04-15 13:38 49.74946 8.53885 14435 ft 303 kts 187°
2026-04-15 13:38 49.72751 8.53555 14630 ft 328 kts 187°
2026-04-15 13:38 49.70392 8.53194 14841 ft 351 kts 187°
2026-04-15 13:38 49.67960 8.52836 15357 ft 362 kts 186°
2026-04-15 13:39 49.65432 8.52480 16136 ft 365 kts 186°
2026-04-15 13:39 49.62895 8.52134 16912 ft 369 kts 186°
2026-04-15 13:39 49.60314 8.51788 17626 ft 374 kts 186°
2026-04-15 13:39 49.57708 8.51443 18347 ft 378 kts 186°
2026-04-15 13:40 49.55071 8.51096 18986 ft 383 kts 186°
2026-04-15 13:40 49.52397 8.50745 19607 ft 387 kts 186°
2026-04-15 13:40 49.49701 8.50392 20227 ft 391 kts 186°
2026-04-15 13:40 49.46969 8.50033 20837 ft 395 kts 186°
2026-04-15 13:41 49.44217 8.49673 21429 ft 399 kts 186°
2026-04-15 13:41 49.41429 8.49308 22015 ft 403 kts 186°
2026-04-15 13:41 49.38619 8.48941 22598 ft 408 kts 186°
2026-04-15 13:41 49.35782 8.48571 23152 ft 412 kts 186°
2026-04-15 13:42 49.32916 8.48197 23713 ft 416 kts 186°
2026-04-15 13:42 49.30047 8.47824 24163 ft 420 kts 186°
2026-04-15 13:42 49.27123 8.47445 24603 ft 424 kts 186°
2026-04-15 13:42 49.24164 8.47060 25033 ft 428 kts 186°
2026-04-15 13:43 49.21185 8.46672 25465 ft 432 kts 186°
2026-04-15 13:43 49.18184 8.46281 25892 ft 435 kts 186°
2026-04-15 13:43 49.15153 8.45888 26307 ft 439 kts 186°
2026-04-15 13:43 49.12096 8.45492 26713 ft 443 kts 186°
2026-04-15 13:44 49.09009 8.45092 27105 ft 446 kts 186°
2026-04-15 13:44 49.06951 8.44818 27358 ft 449 kts 187°
2026-04-15 13:44 49.03858 8.44062 27733 ft 451 kts 194°
2026-04-15 13:44 49.00795 8.42991 28117 ft 454 kts 195°
2026-04-15 13:45 48.97718 8.41847 28493 ft 457 kts 195°
2026-04-15 13:45 48.94613 8.40700 28898 ft 460 kts 195°
2026-04-15 13:45 48.91496 8.39579 29399 ft 460 kts 195°
2026-04-15 13:47 48.69452 8.34587 31201 ft 461 kts 182°
2026-04-15 13:47 48.63036 8.34375 31211 ft 460 kts 183°
2026-04-15 13:48 48.56621 8.34091 31201 ft 461 kts 183°
2026-04-15 13:48 48.50203 8.33771 31195 ft 461 kts 183°
2026-04-15 13:49 48.43783 8.33448 31194 ft 462 kts 183°
2026-04-15 13:49 48.37401 8.33131 31196 ft 463 kts 183°
2026-04-15 13:50 48.30956 8.32813 31198 ft 463 kts 183°
2026-04-15 13:50 48.24508 8.32495 31197 ft 464 kts 183°
2026-04-15 13:51 48.18054 8.32193 31187 ft 465 kts 181°
2026-04-15 13:51 48.11621 8.33236 31198 ft 466 kts 171°
2026-04-15 13:52 48.05221 8.34901 31191 ft 467 kts 171°
2026-04-15 13:52 47.98818 8.36524 31195 ft 467 kts 171°
2026-04-15 13:53 47.92393 8.38084 31191 ft 467 kts 171°
2026-04-15 13:53 47.86012 8.39614 31197 ft 467 kts 171°
2026-04-15 13:54 47.79596 8.41151 31195 ft 467 kts 171°
2026-04-15 13:54 47.73174 8.42688 31199 ft 467 kts 171°
2026-04-15 13:55 47.66737 8.44126 31202 ft 467 kts 174°
2026-04-15 13:55 47.60261 8.45084 31216 ft 468 kts 175°
2026-04-15 13:56 47.53811 8.45953 31214 ft 469 kts 175°
2026-04-15 13:56 47.47305 8.46882 31211 ft 469 kts 174°
2026-04-15 13:57 47.40897 8.47824 31211 ft 470 kts 174°
2026-04-15 13:57 47.34390 8.48779 31186 ft 470 kts 174°
2026-04-15 13:58 47.31140 8.49254 30925 ft 466 kts 174°
2026-04-15 13:58 47.27921 8.49724 30680 ft 462 kts 174°
2026-04-15 13:58 47.24729 8.50189 30438 ft 460 kts 174°
2026-04-15 13:58 47.21546 8.50653 30192 ft 460 kts 174°
2026-04-15 13:59 47.18359 8.51117 29916 ft 459 kts 174°
2026-04-15 13:59 47.15216 8.51574 29646 ft 459 kts 174°
2026-04-15 13:59 47.12045 8.52035 29371 ft 457 kts 174°
2026-04-15 13:59 47.08901 8.52492 29090 ft 456 kts 174°
2026-04-15 14:00 47.05744 8.52950 28822 ft 453 kts 174°
2026-04-15 14:00 47.02614 8.53402 28567 ft 451 kts 174°
2026-04-15 14:00 46.99494 8.53853 28293 ft 449 kts 174°
2026-04-15 14:00 46.96396 8.54299 28041 ft 446 kts 174°
2026-04-15 14:01 46.90241 8.55185 27490 ft 441 kts 174°
2026-04-15 14:01 46.87200 8.55622 27237 ft 438 kts 174°
2026-04-15 14:01 46.84218 8.56050 26973 ft 435 kts 174°
2026-04-15 14:02 46.81211 8.56481 26712 ft 432 kts 174°
2026-04-15 14:02 46.78229 8.56908 26485 ft 430 kts 174°
2026-04-15 14:02 46.75247 8.57335 26205 ft 428 kts 174°
2026-04-15 14:02 46.72284 8.57759 25966 ft 426 kts 174°
2026-04-15 14:03 46.69336 8.58181 25721 ft 425 kts 174°
2026-04-15 14:03 46.66395 8.58600 25464 ft 423 kts 174°
2026-04-15 14:03 46.63468 8.59017 25224 ft 422 kts 174°
2026-04-15 14:03 46.60548 8.59433 24986 ft 420 kts 174°
2026-04-15 14:04 46.57683 8.59840 24747 ft 418 kts 174°
2026-04-15 14:04 46.54758 8.60255 24512 ft 417 kts 174°
2026-04-15 14:04 46.51915 8.60658 24285 ft 414 kts 174°
2026-04-15 14:04 46.49053 8.61063 24054 ft 413 kts 174°
2026-04-15 14:05 46.46188 8.61334 23816 ft 411 kts 182°
2026-04-15 14:05 46.43363 8.60749 23553 ft 409 kts 195°
2026-04-15 14:05 46.40705 8.59330 23284 ft 406 kts 208°
2026-04-15 14:05 46.38295 8.57234 23024 ft 403 kts 214°
2026-04-15 14:06 46.35944 8.55028 22765 ft 401 kts 214°
2026-04-15 14:06 46.33601 8.52864 22493 ft 400 kts 213°
2026-04-15 14:06 46.31244 8.50735 22228 ft 398 kts 213°
2026-04-15 14:06 46.28805 8.48853 21951 ft 398 kts 201°
2026-04-15 14:07 46.26139 8.47820 21709 ft 396 kts 188°
2026-04-15 14:07 46.23430 8.47631 21446 ft 394 kts 175°
2026-04-15 14:07 46.20713 8.48042 21229 ft 392 kts 172°
2026-04-15 14:07 46.18006 8.48507 20957 ft 391 kts 173°
2026-04-15 14:08 46.15310 8.48934 20712 ft 388 kts 173°
2026-04-15 14:08 46.12627 8.49330 20463 ft 387 kts 173°
2026-04-15 14:08 46.09982 8.50035 20213 ft 385 kts 163°
2026-04-15 14:08 46.07467 8.51301 19974 ft 381 kts 158°
2026-04-15 14:09 46.05002 8.52670 19727 ft 379 kts 158°
2026-04-15 14:09 46.02547 8.54043 19487 ft 377 kts 158°
2026-04-15 14:09 46.00103 8.55393 19262 ft 375 kts 158°
2026-04-15 14:09 45.97671 8.56718 18946 ft 373 kts 158°
2026-04-15 14:10 45.95256 8.58020 18735 ft 364 kts 159°
2026-04-15 14:10 45.92914 8.59275 18581 ft 354 kts 159°
2026-04-15 14:10 45.90631 8.60502 18418 ft 345 kts 157°
2026-04-15 14:10 45.88567 8.62149 18097 ft 339 kts 141°
2026-04-15 14:11 45.86777 8.64246 17760 ft 336 kts 139°
2026-04-15 14:11 45.84992 8.66394 17395 ft 334 kts 139°
2026-04-15 14:11 45.83212 8.68519 17026 ft 332 kts 139°
2026-04-15 14:11 45.81437 8.70606 16693 ft 330 kts 140°
2026-04-15 14:12 45.79658 8.72674 16338 ft 328 kts 140°
2026-04-15 14:12 45.77890 8.74719 15997 ft 326 kts 140°
2026-04-15 14:12 45.76110 8.76723 15650 ft 325 kts 144°
2026-04-15 14:12 45.74165 8.78389 15307 ft 325 kts 151°
2026-04-15 14:13 45.72160 8.79864 14961 ft 323 kts 152°
2026-04-15 14:13 45.70159 8.81312 14615 ft 322 kts 152°
2026-04-15 14:13 45.68172 8.82784 14275 ft 321 kts 152°
2026-04-15 14:13 45.66203 8.84277 13928 ft 320 kts 151°
2026-04-15 14:14 45.64245 8.85775 13549 ft 319 kts 151°
2026-04-15 14:14 45.62303 8.87257 13187 ft 317 kts 153°
2026-04-15 14:14 45.60224 8.88236 12882 ft 314 kts 169°
2026-04-15 14:14 45.58086 8.88768 12616 ft 309 kts 169°
2026-04-15 14:15 45.55977 8.89295 12336 ft 305 kts 169°
2026-04-15 14:15 45.53924 8.89832 12072 ft 302 kts 169°
2026-04-15 14:15 45.51855 8.90387 11809 ft 299 kts 168°
2026-04-15 14:15 45.49843 8.90932 11548 ft 296 kts 168°
2026-04-15 14:16 45.47826 8.91480 11291 ft 292 kts 168°
2026-04-15 14:16 45.45836 8.92022 11037 ft 289 kts 168°
2026-04-15 14:16 45.43858 8.92561 10777 ft 287 kts 168°
2026-04-15 14:16 45.41901 8.93092 10537 ft 285 kts 168°
2026-04-15 14:17 45.39986 8.93611 10280 ft 283 kts 168°
2026-04-15 14:17 45.38053 8.94136 10073 ft 279 kts 168°
2026-04-15 14:17 45.36174 8.94645 10087 ft 272 kts 168°
2026-04-15 14:17 45.34345 8.95139 10081 ft 268 kts 168°
2026-04-15 14:18 45.32503 8.95638 10090 ft 270 kts 167°
2026-04-15 14:18 45.30646 8.96141 10089 ft 271 kts 167°
2026-04-15 14:18 45.28813 8.96639 10088 ft 272 kts 167°
2026-04-15 14:18 45.26948 8.97145 10084 ft 271 kts 167°
2026-04-15 14:19 45.25114 8.97643 10087 ft 271 kts 167°
2026-04-15 14:19 45.23273 8.98143 10086 ft 271 kts 167°
2026-04-15 14:19 45.21422 8.98643 10084 ft 271 kts 168°
2026-04-15 14:19 45.19568 8.99139 10086 ft 270 kts 167°
2026-04-15 14:20 45.17712 8.99636 10083 ft 270 kts 168°
2026-04-15 14:20 45.15862 9.00130 10089 ft 270 kts 167°
2026-04-15 14:20 45.14029 9.00621 10090 ft 270 kts 167°
2026-04-15 14:20 45.12176 9.01117 10097 ft 271 kts 167°
2026-04-15 14:21 45.10316 9.01616 10087 ft 270 kts 168°
2026-04-15 14:21 45.08458 9.01761 10060 ft 273 kts 190°
2026-04-15 14:21 45.06731 9.00675 10074 ft 274 kts 219°
2026-04-15 14:21 45.05590 8.98553 10075 ft 273 kts 247°
2026-04-15 14:22 45.05089 8.95970 10102 ft 272 kts 259°
2026-04-15 14:22 45.04814 8.93351 10081 ft 272 kts 273°
2026-04-15 14:22 45.05276 8.90787 10079 ft 269 kts 301°
2026-04-15 14:22 45.06480 8.88838 10083 ft 266 kts 326°
2026-04-15 14:23 45.08146 8.87762 10097 ft 263 kts 348°
2026-04-15 14:23 45.09941 8.87254 10107 ft 263 kts 351°
2026-04-15 14:23 45.11753 8.86792 10104 ft 264 kts 351°
2026-04-15 14:23 45.13572 8.86334 10107 ft 265 kts 351°
2026-04-15 14:24 45.15368 8.85865 10100 ft 265 kts 351°
2026-04-15 14:24 45.17192 8.85376 10107 ft 265 kts 351°
2026-04-15 14:24 45.19007 8.84884 10102 ft 265 kts 350°
2026-04-15 14:24 45.20827 8.84390 10110 ft 265 kts 351°
2026-04-15 14:25 45.22622 8.83902 10107 ft 265 kts 351°
2026-04-15 14:25 45.24438 8.83408 10104 ft 264 kts 351°
2026-04-15 14:25 45.26252 8.82915 10102 ft 264 kts 351°
2026-04-15 14:25 45.28033 8.82428 10101 ft 264 kts 351°
2026-04-15 14:26 45.29843 8.81935 10104 ft 263 kts 351°
2026-04-15 14:26 45.31651 8.81443 10111 ft 264 kts 350°
2026-04-15 14:26 45.33432 8.80958 10100 ft 263 kts 350°
2026-04-15 14:26 45.35231 8.80468 10099 ft 263 kts 351°
2026-04-15 14:27 45.37009 8.79936 10049 ft 260 kts 343°
2026-04-15 14:27 45.38675 8.78907 9871 ft 259 kts 334°
2026-04-15 14:27 45.40255 8.77682 9622 ft 256 kts 332°
2026-04-15 14:27 45.41778 8.76460 9405 ft 252 kts 332°
2026-04-15 14:28 45.43308 8.75244 9186 ft 249 kts 332°
2026-04-15 14:28 45.44823 8.74055 8968 ft 247 kts 333°
2026-04-15 14:28 45.46308 8.72896 8768 ft 246 kts 332°
2026-04-15 14:28 45.47813 8.71729 8554 ft 246 kts 333°
2026-04-15 14:29 45.49320 8.70567 8357 ft 246 kts 333°
2026-04-15 14:29 45.50829 8.69404 8124 ft 246 kts 333°
2026-04-15 14:29 45.52317 8.68261 7938 ft 246 kts 333°
2026-04-15 14:29 45.53836 8.67093 7712 ft 246 kts 332°
2026-04-15 14:30 45.55350 8.65929 7488 ft 247 kts 332°
2026-04-15 14:30 45.56848 8.64778 7283 ft 247 kts 332°
2026-04-15 14:30 45.58367 8.63610 7066 ft 247 kts 332°
2026-04-15 14:30 45.59878 8.62448 6854 ft 246 kts 332°
2026-04-15 14:31 45.61371 8.61299 6638 ft 244 kts 332°
2026-04-15 14:31 45.62888 8.60197 6346 ft 245 kts 340°
2026-04-15 14:31 45.64524 8.59613 6092 ft 244 kts 349°
2026-04-15 14:31 45.66198 8.59202 5863 ft 242 kts 351°
2026-04-15 14:32 45.67855 8.58793 5680 ft 238 kts 350°
2026-04-15 14:32 45.69441 8.58378 5608 ft 229 kts 349°
2026-04-15 14:32 45.70963 8.57964 5543 ft 216 kts 349°
2026-04-15 14:32 45.72404 8.57569 5425 ft 205 kts 349°
2026-04-15 14:33 45.73340 8.57309 5278 ft 203 kts 349°
2026-04-15 14:33 45.74751 8.56919 4754 ft 218 kts 348°
2026-04-15 14:33 45.76271 8.56901 4575 ft 221 kts 18°
2026-04-15 14:33 45.77721 8.58699 4264 ft 211 kts 68°
2026-04-15 14:34 45.78020 8.60047 4105 ft 208 kts 78°
2026-04-15 14:34 45.78304 8.62053 3825 ft 207 kts 81°
2026-04-15 14:34 45.78569 8.64089 3553 ft 206 kts 81°
2026-04-15 14:34 45.78823 8.66083 3294 ft 204 kts 86°
2026-04-15 14:35 45.78590 8.68013 3027 ft 191 kts 123°
2026-04-15 14:35 45.77589 8.69090 3009 ft 178 kts 166°
2026-04-15 14:35 45.76408 8.69534 2984 ft 172 kts 165°
2026-04-15 14:35 45.75276 8.69942 3016 ft 170 kts 169°
2026-04-15 14:36 45.74103 8.70274 2835 ft 172 kts 171°
2026-04-15 14:36 45.72946 8.70591 2654 ft 168 kts 169°
2026-04-15 14:36 45.71806 8.70941 2513 ft 169 kts 168°
2026-04-15 14:36 45.70617 8.71247 2077 ft 176 kts 171°
2026-04-15 14:37 45.69435 8.71562 1796 ft 169 kts 169°
2026-04-15 14:37 45.68318 8.71866 1631 ft 159 kts 170°
2026-04-15 14:37 45.67258 8.72192 1451 ft 145 kts 168°
2026-04-15 14:37 45.66311 8.72441 1269 ft 140 kts 173°
2026-04-15 14:38 45.65356 8.72720 1023 ft 140 kts 169°
2026-04-15 14:38 45.64422 8.72978 839 ft 134 kts 172°
2026-04-15 14:38 45.63567 8.73203 743 ft 113 kts 171°
2026-04-15 14:38 45.62960 8.73366 728 ft 53 kts 169°
2026-04-15 14:39 45.62647 8.73441 725 ft 28 kts 179°
2026-04-15 14:39 45.62540 8.73363 724 ft 15 kts 284°
2026-04-15 14:39 45.62576 8.73277 722 ft 0 kts 302°
2026-04-15 14:40 45.62583 8.73261 724 ft 6 kts 303°
2026-04-15 14:41 45.62620 8.73181 723 ft 12 kts 304°
2026-04-15 14:41 45.62674 8.73073 726 ft 14 kts 308°
2026-04-15 14:41 45.62729 8.72968 727 ft 9 kts 304°
2026-04-15 14:41 45.62777 8.72900 729 ft 11 kts 333°
2026-04-15 14:42 45.62857 8.72868 730 ft 13 kts 347°
2026-04-15 14:42 45.62958 8.72840 733 ft 17 kts 349°
2026-04-15 14:42 45.63111 8.72798 735 ft 26 kts 349°
2026-04-15 14:42 45.63293 8.72747 738 ft 28 kts 349°
2026-04-15 14:43 45.63484 8.72695 742 ft 27 kts 349°
2026-04-15 14:43 45.63657 8.72646 745 ft 27 kts 348°
2026-04-15 14:43 45.63840 8.72594 751 ft 25 kts 350°
2026-04-15 14:43 45.63946 8.72464 753 ft 22 kts 267°
2026-04-15 14:44 45.64003 8.72334 755 ft 17 kts 344°
2026-04-15 14:44 45.64108 8.72337 758 ft 13 kts 55°
2026-04-15 14:44 45.64126 8.72428 753 ft 0 kts 77°